This demonstration page uses our WeatherBlox Daily Observations layout. Learn more.

Hourly Observations for May 13, 2016

Temp ( °F °C ) Dew Point ( °F °C ) Humidity (%) Winds ( mph kmh ) Pressure ( in mb ) Visibility ( mi km ) Precip ( " mm )
12:15 am 00:15 Clear 56 13.2 42 5.8 61 61 S 7 11 30.12 1020 10 16.0934 0 0
12:35 am 00:35 Clear 57 14.1 42 5.5 56 56 S 8 13 30.09 1019 10 16.0934 0 0
12:55 am 00:55 Clear 57 13.9 42 5.5 57 57 S 8 13 30.09 1019 10 16.0934 0 0
1:15 am 01:15 Clear 56 13.6 42 5.7 59 59 S 8 13 30.12 1020 10 16.0934 0 0
1:35 am 01:35 Clear 56 13.4 42 5.8 60 60 S 9 15 30.12 1020 10 16.0934 0 0
1:55 am 01:55 Clear 56 13.6 43 6 60 60 S 9 15 30.06 1018 10 16.0934 0 0
2:15 am 02:15 Clear 56 13.5 43 6 61 61 S 9 15 30.06 1018 10 16.0934 0 0
2:35 am 02:35 Clear 55 12.7 43 6.1 64 64 S 7 11 30.09 1019 10 16.0934 0 0
2:55 am 02:55 Clear 52 11 43 6.1 72 72 SSE 6 9 30.09 1019 10 16.0934 0 0
3:15 am 03:15 Clear 51 10.8 44 6.4 74 74 S 7 11 30.06 1018 10 16.0934 0 0
3:35 am 03:35 Clear 51 10.5 44 6.4 76 76 S 6 9 30.06 1018 10 16.0934 0 0
3:55 am 03:55 Clear 51 10.7 43 6.3 74 74 S 5 7 30.06 1018 10 16.0934 0 0
4:15 am 04:15 Clear 50 10.1 44 6.5 79 79 S 3 6 30.06 1018 10 16.0934 0 0
4:35 am 04:35 Clear 50 10.1 44 6.5 79 79 S 6 9 30.03 1017 10 16.0934 0 0
4:55 am 04:55 Clear 51 10.5 44 6.6 77 77 S 8 13 30.03 1017 10 16.0934 0 0
5:15 am 05:15 Clear 50 10.1 44 6.8 80 80 S 7 11 30.03 1017 10 16.0934 0 0
5:35 am 05:35 Clear 52 11.3 45 7.1 76 76 SSW 9 15 30.03 1017 10 16.0934 0 0
5:55 am 05:55 Clear 53 11.6 45 7.1 74 74 SSW 8 13 30.03 1017 10 16.0934 0 0
6:15 am 06:15 Clear 53 11.4 45 7.2 76 76 SW 7 11 30 1016 10 16.0934 0 0
6:35 am 06:35 Sunny 52 11.3 45 7.3 77 77 SSW 8 13 30 1016 10 16.0934 0 0
6:55 am 06:55 Sunny 53 11.7 46 7.5 76 76 SW 12 19 30 1016 10 16.0934 0 0
7:15 am 07:15 Sunny 55 12.7 46 7.7 72 72 SW 10 17 29.97 1015 10 16.0934 0 0
7:35 am 07:35 Sunny 57 13.7 46 7.9 68 68 SW 12 19 29.97 1015 10 16.0934 0 0
7:55 am 07:55 Sunny 58 14.5 46 8 65 65 SW 14 22 29.97 1015 10 16.0934 0 0
8:15 am 08:15 Sunny 59 15.1 47 8.3 64 64 SW 12 19 29.97 1015 10 16.0934 0 0
8:35 am 08:35 Sunny 60 15.8 48 8.7 63 63 SW 16 26 29.91 1013 10 16.0934 0 0
8:55 am 08:55 Sunny 62 16.5 48 8.7 60 60 SW 20 31 29.91 1013 10 16.0934 0 0
9:15 am 09:15 Sunny 63 17.1 48 9.1 60 60 WSW 15 24 29.91 1013 10 16.0934 0 0
9:35 am 09:35 Sunny 65 18.1 49 9.6 58 58 W 16 26 29.94 1014 10 16.0934 0 0
9:55 am 09:55 Sunny 67 19.3 49 9.3 53 53 WNW 15 24 29.94 1014 10 16.0934 0 0
10:15 am 10:15 Sunny 68 19.9 47 8.2 47 47 NW 20 31 29.91 1013 10 16.0934 0 0
10:35 am 10:35 Sunny 66 18.8 46 7.6 48 48 NW 23 37 29.97 1015 10 16.0934 0 0
10:55 am 10:55 Sunny 65 18.6 44 6.7 46 46 NNW 25 41 29.97 1015 10 16.0934 0 0
11:15 am 11:15 Sunny 64 17.5 44 6.8 50 50 N 28 44 30 1016 10 16.0934 0 0
11:35 am 11:35 Sunny 61 16.3 44 6.9 54 54 N 28 44 30.03 1017 10 16.0934 0 0
11:55 am 11:55 Sunny 58 14.7 41 5.1 53 53 N 30 48 30.06 1018 10 16.0934 0 0
12:15 pm 12:15 Sunny 58 14.3 40 4.2 51 51 N 30 48 30.09 1019 10 16.0934 0 0
12:35 pm 12:35 Sunny 58 14.2 39 3.9 50 50 N 26 43 30.09 1019 10 16.0934 0 0
12:55 pm 12:55 Sunny 58 14.7 39 4 49 49 N 30 48 30.09 1019 10 16.0934 0 0
1:15 pm 13:15 Sunny 57 13.7 39 3.9 52 52 N 25 41 30.12 1020 10 16.0934 0 0
1:35 pm 13:35 Partly Cloudy 55 12.9 39 4 55 55 N 25 41 30.15 1021 10 16.0934 0 0
1:55 pm 13:55 Partly Cloudy 54 12.1 38 3.2 55 55 N 29 46 30.15 1021 10 16.0934 0 0
2:15 pm 14:15 Mostly Cloudy 54 12 38 3.1 55 55 N 28 44 30.18 1022 10 16.0934 0 0
2:35 pm 14:35 Mostly Cloudy 54 12 37 2.8 54 54 N 18 30 30.18 1022 10 16.0934 0 0
2:55 pm 14:55 Mostly Cloudy 54 12.3 36 2.4 51 51 N 25 41 30.18 1022 10 16.0934 0 0
3:15 pm 15:15 Mostly Cloudy 54 12.4 36 2.3 50 50 NNW 21 33 30.18 1022 10 16.0934 0 0
3:35 pm 15:35 Mostly Cloudy 56 13.1 36 2.1 47 47 N 22 35 30.18 1022 10 16.0934 0 0
3:55 pm 15:55 Partly Cloudy 56 13.5 35 1.7 45 45 N 20 31 30.21 1023 10 16.0934 0 0
4:15 pm 16:15 Sunny 57 14 33 0.6 40 40 N 22 35 30.21 1023 10 16.0934 0 0
4:35 pm 16:35 Sunny 57 14 32 0.1 39 39 N 22 35 30.21 1023 10 16.0934 0 0
4:55 pm 16:55 Sunny 57 14 33 0.3 39 39 N 20 31 30.18 1022 10 16.0934 0 0
5:15 pm 17:15 Sunny 57 14 33 0.4 40 40 N 24 39 30.18 1022 10 16.0934 0 0
5:35 pm 17:35 Sunny 58 14.3 34 0.9 40 40 N 18 30 30.15 1021 10 16.0934 0 0
5:55 pm 17:55 Sunny 57 13.9 33 0.8 41 41 N 24 39 30.21 1023 10 16.0934 0 0
6:15 pm 18:15 Sunny 57 14.1 34 0.9 41 41 N 21 33 30.21 1023 10 16.0934 0 0
6:35 pm 18:35 Sunny 57 13.8 33 0.7 41 41 N 22 35 30.21 1023 10 16.0934 0 0
6:55 pm 18:55 Sunny 56 13.6 33 0.4 41 41 N 22 35 30.21 1023 10 16.0934 0 0
7:15 pm 19:15 Sunny 56 13.1 32 0.1 41 41 N 17 28 30.21 1023 10 16.0934 0 0
7:35 pm 19:35 Sunny 55 12.6 32 0.1 43 43 N 21 33 30.21 1023 10 16.0934 0 0
7:55 pm 19:55 Sunny 54 12 31 -0.4 43 43 N 20 31 30.21 1023 10 16.0934 0 0
8:15 pm 20:15 Sunny 53 11.6 31 -0.7 43 43 N 14 22 30.21 1023 10 16.0934 0 0
8:35 pm 20:35 Sunny 52 11.2 31 -0.7 44 44 N 15 24 30.27 1025 10 16.0934 0 0
8:55 pm 20:55 Clear 51 10.6 31 -0.3 47 47 N 12 19 30.24 1024 10 16.0934 0 0
9:15 pm 21:15 Clear 50 10.1 32 -0.2 49 49 N 13 20 30.27 1025 10 16.0934 0 0
9:35 pm 21:35 Clear 50 9.8 31 -0.6 49 49 N 12 19 30.27 1025 10 16.0934 0 0
9:55 pm 21:55 Clear 48 8.9 32 -0.1 54 54 N 10 17 30.27 1025 10 16.0934 0 0
10:15 pm 22:15 Clear 47 8.6 31 -0.3 54 54 N 12 19 30.3 1026 10 16.0934 0 0
10:35 pm 22:35 Clear 47 8.2 31 -0.3 55 55 N 16 26 30.33 1027 10 16.0934 0 0
10:55 pm 22:55 Clear 46 7.7 31 -0.7 56 56 N 15 24 30.36 1028 10 16.0934 0 0
11:15 pm 23:15 Clear 45 7 31 -0.4 60 60 NNE 13 20 30.33 1027 10 16.0934 0 0
11:35 pm 23:35 Clear 44 6.6 30 -1 59 59 N 12 19 30.36 1028 10 16.0934 0 0
11:55 pm 23:55 Clear 43 6.3 30 -1 60 60 N 13 20 30.36 1028 10 16.0934 0 0

Powered by AerisWeather